KINEIS-1E

Satellite information

Favourite Embed

Satellite Type and Status

PAYLOADIN ORBIT

Key statistics

Satellite KINEIS-1E at a glance.

Uptime

383

Days in orbit

Revolutions

≈ 14.8

Per day

Orbit

SSO

Sun Synchronous Orbit

Inclination

98.0

Latest

Satellite identification and parameters

Extended collection of information and parameters for KINEIS-1E.

Object identification

Identified? True

Debris? False

Object name: KINEIS-1E

International designator: 2024-114E

Object number (NORAD): 60083

Object ID (CCSDS): 60083

Country: FRANCE (FR)

Current information (Y/N): Y

RCS size: MEDIUM

Orbital parameters

Period: 97.321 minutes

Inclination: 98.0086 deg

SMA: 7008.606 km

Apoapsis: 632.152 km

Periapsis: 628.79 km

RAAN: 209.2847 deg

Eccentricy: 0.0002398

Argument of periapsis: 114.1287 deg

Mean anomaly: 246.0175 deg

Mean motion: 14.79637387 rev/day

Mean motion (dot): 0.00001037 rev/day2

B* drag term: 0.00014526 1/REarth

Two-line elements (TLE)

Creation date: July 7, 2025, 10:26 p.m.

Reference frame: TEME

Reference center: EARTH

Epoch: July 7, 2025, 9:06 p.m. UTC

TLE line 0: 0 KINEIS-1E

TLE line 1: 1 60083U 24114E 25188.87964657 .00001037 00000-0 14526-3 0 9997

TLE line 2: 2 60083 98.0086 209.2847 0002398 114.1287 246.0175 14.79637387 56458

Live tracking on map

Real-time ground track for satellite KINEIS-1E.

In-orbit conjunctions

There are no conjunctions computed for KINEIS-1E, at the moment. Check back to stay up to date, as we update our databases every day.

Go to all conjunctions

Associated space launch

First batch of five satellites for the French Kinéis IoT constellation designed to operate with 25 nanosatellites of 30 kg each.

KINEIS-1E was lifted into orbit during the mission ‘Electron | No Time Toulouse (Kinéis 1-5)’, on board a Electron space rocket.

The launch took place on June 20, 2024, 6:13 p.m. from Rocket Lab Launch Complex 1B.

For more information about the launch, click the button.

Launch to space Electron | No Time Toulouse (Kinéis 1-5)
Electron | No Time Toulouse (Kinéis 1-5)

Agency: Kinéis

Status: Launch Successful

Launch date: June 20, 2024, 6:13 p.m. UTC

Rocket: Electron

Launch pad: Rocket Lab Launch Complex 1B

Location: Rocket Lab Launch Complex 1, Mahia Peninsula, New Zealand

...

Latest news about this satellite

News about space launch
Rocket Report: Electron turns 50, China’s Moon launcher breathes fire

"Most rocket startups are still stuck in the long process of reengineering."

News about space launch
Rocket Lab launches first Kinéis satellites on 50th Electron

Rocket Lab successfully launched the first set of satellites for a French startup June 20 on the 50th flight of its Electron rocket.

News about space launch
Rocket Lab successfully launches its 50th Electron rocket

Rocket Lab's Electron rocket made history by reaching its 50th launch faster than any other commercially developed orbital launch vehicle. Liftoff from New Zealand took place at 6:13 a.m. NZST on Friday, June 21 (2:13 p.m. EDT, 1813 UTC on Thursday, June ...


Newsletter sign-up

Weekly statistics, charts and insights to help you stay on top of the space industry.